Aéroclub Cannes UACA

Aéroclub Cannes UACA
UACA
Approuvé A.T.O. EASA – N°FR.ATO.0108

UACA, UNION des aéroclubs
Cannes “Ailes d’Azur”, Nice “Côte d’Azur”, Grasse “St Exupery”, ACCA “Francis Séverac”

Un cache-pitot se trouve à bord de chaque avion. Pensez à le mettre en place à la fin de chaque vol !

Avant de quitter l'avion, vérifiez que vous n'emportez pas la checklist

Un vol ne s'entreprend qu'avec un pare-brise parfaitement propre, il en va de votre sécurité, et de celle des autres

Après chaque vol, merci de mettre en place les pares-soleil!


Météo à Cannes:
METAR
LFMD 281300Z AUTO 27011KT 220V310 9999 FEW078 BKN092 25/10 Q0999 TEMPO 27020G40KT =
LFMD 280800Z 2809/2909 27020G40KT CAVOK BECMG 2814/2816 28012KT

TAF
LFMD 280800Z 2809/2909 27020G40KT CAVOK BECMG 2814/2816 28012KT =

SR / SS: 05:26 / 17:19 UTC (LFMD 2022-09-28)